Regional Weather Roundup
Issued by NWS Newport/Morehead, NC

Current Version | Previous Version | Text Only | Print | Product List | Glossary On
Versions: 1 2 3 4 5 6 7 8 9 10 11 12 13 14 15 16 17 18 19 20 21 22 23 24 25 26 27 28 29 30 31 32 33 34 35 36 37 38 39 40 41 42 43 44 45 46 47 48 49 50
000
ASUS42 KMHX 251813
RWRMHX
WEATHER ROUNDUP FOR EASTERN NORTH CAROLINA
NATIONAL WEATHER SERVICE NEWPORT/MOREHEAD CITY NC
200 PM EDT TUE APR 25 2017

NOTE: "FAIR" INDICATES FEW OR NO CLOUDS BELOW 12,000 FEET
WITH NO SIGNIFICANT WEATHER AND/OR OBSTRUCTIONS TO VISIBILITY

NCZ015>017-031-032-045>047-102-103-251900-
NORTH COAST

CITY           SKY/WX    TMP DP  RH WIND       PRES   REMARKS
EDENTON        CLOUDY    73  65  74 CALM      29.65R
ELIZABETH CITY LGT RAIN  68  65  90 S7        29.65R
KITTY HAWK     RAIN      63  63 100 CALM      29.64F
MANTEO         DRIZZLE   65  64  97 E7        29.64F

$$

NCZ045>047-081-094-103-104-251900-
CENTRAL COAST

CITY           SKY/WX    TMP DP  RH WIND       PRES   REMARKS
FRISCO         CLOUDY    66  62  87 VRB3      29.65R

$$

NCZ095-097-098-100-101-251900-
SOUTHERN COAST

CITY           SKY/WX    TMP DP  RH WIND       PRES   REMARKS
BEAUFORT       SUNNY     72  64  76 S12       29.63R
CEDAR ISLAND   NOT AVBL
JACKSONVILLE   NOT AVBL
PINEY ISLAND   PTCLDY   N/A N/A N/A E14       29.61F
WILMINGTON     MOSUNNY   71  59  65 W10       29.62S


$$

NCZ011>013-027>030-043-044-078>080-089-090>093-098-251900-
COASTAL PLAIN

CITY           SKY/WX    TMP DP  RH WIND       PRES   REMARKS
AHOSKIE          N/A     71  59  66 CALM      29.62F
CLINTON        LGT RAIN  65  63  93 CALM      29.63S
ELIZABETHTOWN  CLOUDY    67  60  79 SW3       29.64S
GOLDSBORO      MOSUNNY   73  61  66 CALM      29.60S
GREENVILLE     MOSUNNY   73  61  64 CALM      29.64F
HAVELOCK       NOT AVBL
KENANSVILLE    LGT RAIN  70  61  73 NW3       29.61S
KINSTON        PTSUNNY   75  59  57 N5        29.61S
NEW BERN       SUNNY     75  57  53 E8        29.61F
RICHLANDS      MOSUNNY   74  59  59 W5        29.61S
ROCKY MOUNT    MOSUNNY   73  60  63 W6        29.62F
WASHINGTON     SUNNY     72  60  66 SE6       29.61F
WHITEVILLE     CLOUDY    65  60  82 SW7       29.65S

$$

AMZ130-135-150-152-154-156-158-170-250-252-270-ANZ085-086-088-633-658-670-251900-
MARINE OBSERVATIONS

STATION/POSITION TIME  TEMP    WIND        PRES    WAVE   SWELL
                       AIR SEA DIR/SP/G            HT/PER HT/PER
                 (UTC) (F)     (DEG/KT/KT) (MB)    (FT/S) (FT/S)
CHESAPEAKE LIGHT NOT AVBL
64 E VA BEACH    1750   59 55   70/ 10/ 12 1004.2   12/11  11/11
DUCK             1742   61 60  150/  5/  5 1003.8
2 E DUCK         1800      59                N/A     8/12   5/12
OREGON INLET     1742   64 63  280/  3/  5 1003.6
13E OREGON INLT  1748      58                N/A     8/11   8/11
HATTERAS CG      1742   64 67  340/  5/  7 1003.6
DIAMOND BUOY     1750   68 78  330/  6/ 10 1003.5    8/11   8/11
CAPE LOOKOUT     1800   67     120/  6/  7 1003.1
BEAUFORT LAB     1742   68 65  190/ 10/ 11 1002.4
30 SE NEW RVR IN 1708   67     260/ 10/ 14 1003.7
30 SE NEW RVR IN 1743      71                N/A     7/11   5/11
27 SE WRIGHTSVLE 1708   66 72  250/ 14/ 19 1002.8
5 SE WRIGHTSVLE  1708   68 69  230/ 10/ 16 1003.1
225 S CAPE HAT   1750   74 75  230/ 19/ 23 1007.2    9/ 9   3/15
41 SE CHARLESTON 1750   65 73  260/ 16/ 19 1005.8    6/ 9   3/ 9

$$




USA.gov is the U.S. government's official web portal to all federal, state and local government web resources and services.